Location: Astronomy Adventures Observing Site
(35.3995°N, 106.1279°W)
Time: 18:50:14
(UTC-06:00)

Envisat - Pass Details

Date: 28 January 2022
Orbit: 764 x 765 km, 98.2° (Epoch: 27 May)

Event Time Altitude Azimuth Distance (km) Brightness Sun altitude
Rises 06:07:45 0° 353° (N) 3,234 6.0 -12.3°
Reaches altitude 10° 06:10:45 10° 334° (NNW) 2,304 5.1 -11.7°
Maximum altitude 06:14:00 17° 294° (WNW) 1,837 4.3 -11.1°
Drops below altitude 10° 06:17:16 10° 254° (WSW) 2,297 5.0 -10.4°
Sets 06:20:16 0° 235° (SW) 3,219 5.8 -9.8°
